Torna al catalogo

ICEYE-X47

AttivoScienzaVLEO
NORAD 62389·PAYLOAD·🇫🇮 Finland

Lanciato Dec 21, 2024 da Vandenberg Space Force Base

Loading…

Prossimi Passaggi (prossime 24 ore)

TLE

AggiornatoSource: Space-Track

Epoca: Sep 14, 2026, 09:01 UTC

1 62389U 24247N   26257.37598589  .00001915  00000-0  11807-3 0  9999
2 62389  44.9964 240.4134 0001630   0.7527 359.3353 15.13880360 95690

Traccia ICEYE-X47 in tempo reale con AllMySat

Download on the App Store